This is the latest recevied weather packets stored in our database for station/object DL3NDS-WX. If no packets are shown the sender has not sent any weather packets the latest 10 day(s).
| Time | Temp. | Humidity | Pressure | Rain* | Wind** | Luminosity | Snow |
|---|---|---|---|---|---|---|---|
| 1788619571 | 20° C | 55% | 1022.4 hPa | 0 mm | - | 125 W/m² | - |
| 1788619445 | 20° C | 55% | 1022.4 hPa | 0 mm | - | 125 W/m² | - |
| 1788619384 | 20° C | 55% | 1022.4 hPa | 0 mm | - | 135 W/m² | - |
| 1788619333 | 20.56° C | 55% | 1022.4 hPa | 0 mm | - | 148 W/m² | - |
| 1788619298 | 20.56° C | 55% | 1022.5 hPa | 0 mm | - | 139 W/m² | - |
| 1788619200 | 20.56° C | 55% | 1022.3 hPa | 0 mm | - | 156 W/m² | - |
| 1788619139 | 20.56° C | 54% | 1022.3 hPa | 0 mm | - | 213 W/m² | - |
| 1788619078 | 20.56° C | 54% | 1022.3 hPa | 0 mm | - | 148 W/m² | - |
| 1788619016 | 20.56° C | 55% | 1022.3 hPa | 0 mm | - | 531 W/m² | - |
| 1788618955 | 20.56° C | 55% | 1022.2 hPa | 0 mm | - | 531 W/m² | - |
| 1788618893 | 20.56° C | 55% | 1022.3 hPa | 0 mm | - | 531 W/m² | - |
| 1788618833 | 20° C | 55% | 1022.3 hPa | 0 mm | - | 531 W/m² | - |
| 1788618770 | 20° C | 54% | 1022.3 hPa | 0 mm | - | 531 W/m² | - |
| 1788618710 | 20° C | 54% | 1022.3 hPa | 0 mm | - | 128 W/m² | - |
| 1788618646 | 20° C | 55% | 1022.4 hPa | 0 mm | - | 128 W/m² | - |
| 1788618587 | 20° C | 55% | 1022.2 hPa | 0 mm | - | 545 W/m² | - |
| 1788618525 | 20° C | 55% | 1022.2 hPa | 0 mm | - | 545 W/m² | - |
| 1788618467 | 20° C | 55% | 1022.1 hPa | 0 mm | - | 541 W/m² | - |
| 1788618425 | 20° C | 55% | 1022.2 hPa | 0 mm | - | 95 W/m² | - |
| 1788618392 | 20° C | 55% | 1022.3 hPa | 0 mm | - | 95 W/m² | - |
| 1788618283 | 20° C | 55% | 1022.3 hPa | 0 mm | - | 90 W/m² | - |
| 1788618220 | 20° C | 55% | 1022.2 hPa | 0 mm | - | 162 W/m² | - |
| 1788618158 | 20° C | 55% | 1022.3 hPa | 0 mm | - | 98 W/m² | - |
| 1788618097 | 20° C | 55% | 1022.3 hPa | 0 mm | - | 98 W/m² | - |
| 1788618039 | 20° C | 55% | 1022.3 hPa | 0 mm | - | 564 W/m² | - |
* Rain latest hour (hover to see other rain measurements)
** Current wind speed in m/s (hover to see current wind gust speed)